Flag Weather past 2 weeks in Jan Mayen, Jan Mayen, Norway

Now
36 °F

Chilly.


Feels Like: 31 °F
Forecast: 37 / 41 °F
Wind: 6 mph from Southwest

Location: Jan Mayen

Current Time: Nov 27, 2014 at 10:06:24 PM

Latest Report: Nov 27, 2014 at 9:00 PM


Visibility: N/A

Pressure: 29.74 "Hg

Humidity: 83%

Dew point: 31 °F

Location of Jan MayenLocation

Historic Weather in Jan Mayen — Graph

°F

Jan Mayen temperature yesterday

Maximum temperature yesterday: 37 °F (at 5:00 AM)
Minimum temperature yesterday: 35 °F (at 10:00 AM)
Average temperature yesterday: 36 °F

Past Weeks' High & Low Weather Summary

 TemperatureHumidityPressure
High40 °F (Nov 15, 12:00 AM)99% (Nov 19, 10:00 PM)30.35 "Hg (Nov 19, 10:00 PM)
Low30 °F (Nov 12, 10:00 PM)68% (Nov 27, 5:00 PM)29.41 "Hg (Nov 26, 4:00 PM)
Average37 °F93%29.96 "Hg
* Reported Nov 12 8:00 PM — Nov 27 8:00 PM, Jan Mayen, Weather by CustomWeather, © 2014

Note: Actual official high and low records may vary slightly from our data, if they occured in-between our weather recording intervals... More about our weather records

Advertising

Jan Mayen weather history for previous 24 hours

 ConditionsComfort  
Time TempWeatherWind HumidityBarometerVisibility
8:00 PM
Nov 27
35 °FChilly.7 mph85%29.73 "HgN/A
7:00 PM36 °FPartly sunny.8 mph78%29.71 "Hg19 mi
6:00 PM35 °FChilly.9 mph82%29.69 "HgN/A
5:00 PM35 °FChilly.7 mph68%29.67 "HgN/A
4:00 PM35 °FPartly sunny.8 mph69%29.65 "Hg19 mi
3:00 PM34 °FChilly.10 mph81%29.64 "HgN/A
2:00 PM35 °FChilly.9 mph81%29.62 "HgN/A
1:00 PM35 °FSnow flurries. Overcast.6 mph85%29.61 "Hg9 mi
12:00 PM35 °FChilly.2 mph87%29.59 "HgN/A
11:00 AM35 °FChilly.3 mph87%29.57 "HgN/A
10:00 AM35 °FPartly sunny.5 mph83%29.56 "Hg19 mi
9:00 AM36 °FChilly.3 mph80%29.55 "HgN/A
8:00 AM36 °FChilly.5 mph82%29.50 "HgN/A
7:00 AM36 °FOvercast.3 mph80%29.50 "Hg19 mi
6:00 AM36 °FChilly.5 mph81%29.47 "HgN/A
5:00 AM36 °FChilly.2 mph82%29.47 "HgN/A
3:00 AM36 °FChilly.5 mph85%29.44 "HgN/A
2:00 AM36 °FChilly.5 mph84%29.44 "HgN/A
1:00 AM37 °FPassing clouds.7 mph77%29.41 "Hg19 mi
12:00 AM34 °FChilly.3 mph96%29.41 "HgN/A
11:00 PM
Nov 26
35 °FChilly.1 mph97%29.41 "HgN/A
10:00 PM36 °FChilly.1 mph97%29.41 "HgN/A
Weather by CustomWeather, © 2014

See weather overviewHow to use our weather pages